Glen Ullin, ND

10:25 AM MDT on September 29, 2016 (GMT -0600)
Glen Ullin Rgnl, Glen Ullin,

Weather History for KD57 - March, 2014

Change the Weather History Date:

Saturday, March 1, 2014

  Actual Average (KDIK) Record (KDIK)
Temperature  
Mean Temperature -10 °F 24 °F  
Max Temperature -5 °F 35 °F 70 °F (1992)
Min Temperature -16 °F 14 °F -28 °F (1962)
Degree Days  
Heating Degree Days 76 41  
Month to date heating degree days 41  
Since 1 July heating degree days 6335  
Cooling Degree Days 0 0  
Month to date cooling degree days 0  
Year to date cooling degree days 0  
Moisture  
Dew Point -27 °F    
Average Humidity 47    
Maximum Humidity 64    
Minimum Humidity 37    
Precipitation  
Precipitation 0.00 in 0.01 in 0.34 in (1901)
Month to date precipitation 0.01  
Year to date precipitation 0.64  
Sea Level Pressure  
Sea Level Pressure 30.45 in    
Wind  
Wind Speed 13 mph (NNW)    
Max Wind Speed 20 mph    
Max Gust Speed 23 mph    
Visibility 10 miles    
Events      
T = Trace of Precipitation, MM = Missing Value Source: NWS Daily Summary

Daily Weather History Graph

Daily Weather History Graph

Search for Another Location

Airport or City:

Trip Planner

Search our weather history database for the weather conditions in past years. The results will help you decide how hot, cold, wet, or windy it might be!

Date:

Astronomy

Mar. 01, 2014 Rise Set
Actual Time 6:27 AM MST 5:33 PM MST
Civil Twilight 5:56 AM MST 6:03 PM MST
Nautical Twilight 5:21 AM MST 6:38 PM MST
Astronomical Twilight 4:46 AM MST 7:14 PM MST
Moon 6:18 AM MST (3/1) 6:28 PM MST (3/1)
Length of Visible Light 12h 07m
Length of Day
11h 06m
New Moon, 0% of the Moon is Illuminated
Mar 1
New Moon
Mar 8
First Quarter
Mar 16
Full
Mar 23
Last Quarter
Mar 30
New

Hourly Weather History & Observations

Time (MST) Temp. Windchill Dew Point Humidity Pressure Visibility Wind Dir Wind Speed Gust Speed Precip Events Conditions
12:15 AM -9.4 °F -30.6 °F -22.0 °F 54% 30.34 in 10.0 mi North 13.8 mph - N/A   Overcast
12:35 AM -9.4 °F -30.6 °F -23.8 °F 49% 30.34 in 10.0 mi North 13.8 mph - N/A   Overcast
12:55 AM -11.2 °F -31.1 °F -23.8 °F 54% 30.35 in 10.0 mi North 11.5 mph - N/A   Overcast
1:15 AM -11.2 °F -32.1 °F -25.6 °F 49% 30.35 in 10.0 mi North 12.7 mph - N/A   Overcast
1:35 AM -13.0 °F -35.2 °F -25.6 °F 53% 30.35 in 10.0 mi North 13.8 mph - N/A   Mostly Cloudy
1:55 AM -13.0 °F -35.2 °F -25.6 °F 53% 30.37 in 10.0 mi North 13.8 mph - N/A   Mostly Cloudy
2:15 AM -13.0 °F -34.3 °F -25.6 °F 53% 30.37 in 10.0 mi North 12.7 mph - N/A   Partly Cloudy
2:35 AM -13.0 °F -35.2 °F -25.6 °F 53% 30.38 in 10.0 mi North 13.8 mph - N/A   Partly Cloudy
2:55 AM -13.0 °F -36.0 °F -25.6 °F 53% 30.38 in 10.0 mi NNW 15.0 mph - N/A   Scattered Clouds
3:15 AM -13.0 °F -36.0 °F -25.6 °F 53% 30.37 in 10.0 mi NNW 15.0 mph - N/A   Overcast
3:35 AM -13.0 °F -36.0 °F -25.6 °F 53% 30.37 in 10.0 mi North 15.0 mph - N/A   Scattered Clouds
3:55 AM -13.0 °F -36.0 °F -25.6 °F 53% 30.39 in 10.0 mi NW 15.0 mph - N/A   Scattered Clouds
4:15 AM -13.0 °F -36.8 °F -25.6 °F 53% 30.39 in 10.0 mi NNW 16.1 mph - N/A   Mostly Cloudy
4:35 AM -14.8 °F -37.5 °F -27.4 °F 53% 30.39 in 10.0 mi NNW 13.8 mph - N/A   Mostly Cloudy
4:55 AM -14.8 °F -37.5 °F -27.4 °F 53% 30.42 in 7.0 mi NNW 13.8 mph - N/A   Mostly Cloudy
5:15 AM -14.8 °F -38.3 °F -27.4 °F 53% 30.42 in 10.0 mi NNW 15.0 mph 20.7 mph N/A   Mostly Cloudy
5:35 AM -14.8 °F -38.3 °F -25.6 °F 58% 30.41 in 10.0 mi NNW 15.0 mph - N/A   Mostly Cloudy
5:55 AM -14.8 °F -38.3 °F -27.4 °F 53% 30.43 in 9.0 mi NNW 15.0 mph 23.0 mph N/A   Scattered Clouds
6:15 AM -14.8 °F -34.6 °F -27.4 °F 53% 30.44 in 10.0 mi NNW 10.4 mph 18.4 mph N/A   Mostly Cloudy
6:35 AM -14.8 °F -39.8 °F -27.4 °F 53% 30.42 in 8.0 mi NNW 17.3 mph - N/A   Mostly Cloudy
6:55 AM -14.8 °F -38.3 °F -27.4 °F 53% 30.43 in 2.5 mi NNW 15.0 mph - N/A   Haze
7:15 AM -14.8 °F -38.3 °F -27.4 °F 53% 30.45 in 2.5 mi NW 15.0 mph - N/A   Haze
7:35 AM -16.6 °F -38.9 °F -29.2 °F 53% 30.46 in 10.0 mi NNW 12.7 mph 18.4 mph N/A   Partly Cloudy
7:55 AM -16.6 °F -38.9 °F -31.0 °F 48% 30.48 in 10.0 mi NNW 12.7 mph 18.4 mph N/A   Scattered Clouds
8:15 AM -14.8 °F -38.3 °F -31.0 °F 44% 30.49 in 10.0 mi NNW 15.0 mph - N/A   Scattered Clouds
8:35 AM -14.8 °F -41.2 °F -31.0 °F 44% 30.49 in 10.0 mi NNW 19.6 mph - N/A   Partly Cloudy
8:55 AM -14.8 °F -39.8 °F -29.2 °F 48% 30.48 in 2.5 mi NNW 17.3 mph - N/A   Haze
9:15 AM -16.6 °F -41.4 °F -29.2 °F 53% 30.48 in 7.0 mi NNW 16.1 mph - N/A   Mostly Cloudy
9:35 AM -16.6 °F -39.8 °F -31.0 °F 48% 30.49 in 10.0 mi NNW 13.8 mph - N/A   Scattered Clouds
9:55 AM -14.8 °F -38.3 °F -31.0 °F 44% 30.50 in 10.0 mi NNW 15.0 mph - N/A   Clear
10:15 AM -14.8 °F -35.6 °F -32.8 °F 40% 30.50 in 10.0 mi NNW 11.5 mph 18.4 mph N/A   Clear
10:35 AM -14.8 °F -34.6 °F -31.0 °F 44% 30.51 in 10.0 mi NNW 10.4 mph - N/A   Clear
10:55 AM -13.0 °F -34.3 °F -31.0 °F 40% 30.51 in 10.0 mi NW 12.7 mph 18.4 mph N/A   Clear
11:15 AM -13.0 °F -32.4 °F -31.0 °F 40% 30.51 in 10.0 mi NNW 10.4 mph - N/A   Clear
11:35 AM -13.0 °F -31.3 °F -31.0 °F 40% 30.50 in 10.0 mi NNW 9.2 mph 15.0 mph N/A   Clear
11:55 AM -11.2 °F -29.0 °F -31.0 °F 37% 30.49 in 10.0 mi NW 9.2 mph 17.3 mph N/A   Clear
12:15 PM -11.2 °F -31.1 °F -31.0 °F 37% 30.47 in 10.0 mi NW 11.5 mph - N/A   Clear
12:35 PM -9.4 °F -29.8 °F -29.2 °F 37% 30.48 in 10.0 mi NW 12.7 mph 23.0 mph N/A   Clear
12:55 PM -9.4 °F -26.8 °F -29.2 °F 37% 30.47 in 10.0 mi NW 9.2 mph 17.3 mph N/A   Clear
1:15 PM -9.4 °F -27.9 °F -29.2 °F 37% 30.47 in 10.0 mi NW 10.4 mph 18.4 mph N/A   Clear
1:35 PM -9.4 °F -28.9 °F -29.2 °F 37% 30.46 in 10.0 mi NNW 11.5 mph 17.3 mph N/A   Clear
1:55 PM -9.4 °F -28.9 °F -29.2 °F 37% 30.46 in 10.0 mi NNW 11.5 mph 17.3 mph N/A   Clear
2:15 PM -7.6 °F -27.5 °F -27.4 °F 38% 30.46 in 10.0 mi NW 12.7 mph - N/A   Clear
2:35 PM -9.4 °F -29.8 °F -29.2 °F 37% 30.46 in 10.0 mi NW 12.7 mph - N/A   Clear
2:55 PM -7.6 °F -25.7 °F -27.4 °F 38% 30.46 in 10.0 mi NW 10.4 mph - N/A   Clear
3:15 PM -7.6 °F -24.6 °F -27.4 °F 38% 30.46 in 10.0 mi NNW 9.2 mph 15.0 mph N/A   Clear
3:35 PM -7.6 °F -25.7 °F -27.4 °F 38% 30.46 in 10.0 mi NNW 10.4 mph 19.6 mph N/A   Clear
3:55 PM -5.8 °F -25.2 °F -25.6 °F 38% 30.45 in 10.0 mi NW 12.7 mph - N/A   Clear
4:15 PM -7.6 °F -28.3 °F -27.4 °F 38% 30.45 in 10.0 mi NNW 13.8 mph - N/A   Clear
4:35 PM -7.6 °F -28.3 °F -27.4 °F 38% 30.45 in 10.0 mi NNW 13.8 mph - N/A   Clear
4:55 PM -7.6 °F -26.6 °F -27.4 °F 38% 30.45 in 10.0 mi NW 11.5 mph - N/A   Clear
5:15 PM -7.6 °F -26.6 °F -27.4 °F 38% 30.45 in 10.0 mi NNW 11.5 mph - N/A   Scattered Clouds
5:35 PM -7.6 °F -25.7 °F -27.4 °F 38% 30.46 in 10.0 mi NW 10.4 mph - N/A   Mostly Cloudy
5:55 PM -7.6 °F -25.7 °F -25.6 °F 41% 30.46 in 10.0 mi NNW 10.4 mph - N/A   Overcast
6:15 PM -7.6 °F -25.7 °F -25.6 °F 41% 30.46 in 10.0 mi NW 10.4 mph - N/A   Overcast
6:35 PM -7.6 °F -27.5 °F -27.4 °F 38% 30.47 in 10.0 mi NW 12.7 mph - N/A   Overcast
6:55 PM -7.6 °F -24.6 °F -25.6 °F 41% 30.47 in 10.0 mi NW 9.2 mph - N/A   Overcast
7:15 PM -9.4 °F -24.3 °F -23.8 °F 49% 30.47 in 10.0 mi North 6.9 mph - N/A   Overcast
7:35 PM -9.4 °F -24.3 °F -23.8 °F 49% 30.47 in 10.0 mi North 6.9 mph - N/A   Overcast
7:55 PM -9.4 °F -25.6 °F -23.8 °F 49% 30.48 in 10.0 mi North 8.1 mph - N/A   Overcast
8:15 PM -9.4 °F -26.8 °F -23.8 °F 49% 30.48 in 10.0 mi North 9.2 mph - N/A   Overcast
8:35 PM -9.4 °F -24.3 °F -23.8 °F 49% 30.48 in 10.0 mi NNW 6.9 mph - N/A   Overcast
8:55 PM -9.4 °F -24.3 °F -23.8 °F 49% 30.48 in 10.0 mi North 6.9 mph - N/A   Overcast
9:15 PM -9.4 °F -24.3 °F -23.8 °F 49% 30.49 in 10.0 mi North 6.9 mph - N/A   Overcast
9:35 PM -9.4 °F -24.3 °F -22.0 °F 54% 30.48 in 10.0 mi North 6.9 mph - N/A   Overcast
9:55 PM -11.2 °F -23.0 °F -22.0 °F 59% 30.48 in 10.0 mi North 4.6 mph - N/A   Overcast
10:15 PM -11.2 °F -23.0 °F -23.8 °F 54% 30.49 in 10.0 mi NNW 4.6 mph - N/A   Overcast
10:35 PM -11.2 °F -23.0 °F -23.8 °F 54% 30.49 in 10.0 mi NNW 4.6 mph - N/A   Overcast
10:55 PM -11.2 °F -26.4 °F -23.8 °F 54% 30.49 in 10.0 mi NNW 6.9 mph - N/A   Overcast
11:15 PM -11.2 °F -26.4 °F -23.8 °F 54% 30.48 in 10.0 mi NW 6.9 mph - N/A   Mostly Cloudy
11:35 PM -13.0 °F -27.0 °F -23.8 °F 59% 30.49 in 10.0 mi NW 5.8 mph - N/A   Partly Cloudy
11:55 PM -14.8 °F -24.8 °F -23.8 °F 64% 30.49 in 10.0 mi NW 3.5 mph - N/A   Clear